84P/Giclas (2020)

Japanese version
Home page
Updated on June 15, 2021

---------------------------------------------------------------------

* Profile

* Pictures

* Orbital Elements

Epoch 2020 Dec. 17.0 TT = JDT 2459200.5                                         
T 2020 June 3.83063 TT                                  Rudenko                 
q   1.7188605            (2000.0)            P               Q                  
n   0.14744455     Peri.  281.56934     +0.86017544     -0.49447486             
a   3.5485443      Node   108.17480     +0.50397332     +0.78661646             
e   0.5156153      Incl.    7.55213     +0.07816072     +0.36976907             
P   6.68                                                                        
From 1716 observations 1985 Dec. 5-2021 Mar. 18, mean residual 0".7.            
     Nongravitational parameters A1 = +0.09, A2 = -0.0025.                      

* Finding Charts

* Magnitudes Graph

        m1 = 9.3 + 5 log d + 20.0 log r(t - 70)

---------------------------------------------------------------------

The orbital elements are published on M.P.E.C. 2021-F115.
The charts are made with StellaNavigator Ver.10 (AstroArts).
The magnitudes graphs are made with Comet for Windows.

---------------------------------------------------------------------

Copyright(C) Seiichi Yoshida (comet@aerith.net). All rights reserved.